• In Deutschland
  • Länderverzeichnis
  • Für 7 Tage
  • Wassertemperatur
  • Satellitenkarten
  • Wetterkarte
  • Widgets
  • user-avatar
    Anmelden

    Stündliche Wetter Villavicencio

    Heute, 23 November, Donnerstag

    Zeit Temperatur Niederschläge Wind Luftdruck Luftfeuchtigkeit
    00:00 +24°C° 0,1 mm 1 m/S 717 mmHg 88%
    01:00 +24°C° 0 mm 1 m/S 716 mmHg 87%
    02:00 +23°C° 0,1 mm 1 m/S 716 mmHg 87%
    03:00 +23°C° 0,1 mm 1 m/S 716 mmHg 86%
    04:00 +23°C° 0,1 mm 1 m/S 716 mmHg 86%
    05:00 +24°C° 0 mm 1 m/S 717 mmHg 83%
    06:00 +24°C° 0 mm 1 m/S 717 mmHg 80%
    07:00 +25°C° 0 mm 1 m/S 718 mmHg 78%
    08:00 +27°C° 0,1 mm 1 m/S 718 mmHg 70%
    09:00 +30°C° 0,1 mm 1 m/S 718 mmHg 63%
    10:00 +32°C° 0,1 mm 1 m/S 718 mmHg 56%
    11:00 +32°C° 0,1 mm 1 m/S 718 mmHg 55%
    12:00 +34°C° 0,1 mm 2 m/S 717 mmHg 54%
    13:00 +34°C° 0,1 mm 2 m/S 716 mmHg 54%
    14:00 +32°C° 0,3 mm 2 m/S 715 mmHg 59%
    15:00 +32°C° 0,3 mm 2 m/S 715 mmHg 65%
    16:00 +31°C° 0,3 mm 1 m/S 714 mmHg 70%
    17:00 +29°C° 0,8 mm 1 m/S 715 mmHg 77%
    18:00 +27°C° 0,8 mm 1 m/S 715 mmHg 83%
    19:00 +26°C° 0,8 mm 1 m/S 715 mmHg 90%
    20:00 +25°C° 0,3 mm 1 m/S 716 mmHg 89%
    21:00 +25°C° 0,3 mm 1 m/S 716 mmHg 88%
    22:00 +25°C° 0,3 mm 1 m/S 717 mmHg 88%
    23:00 +25°C° 0,1 mm 1 m/S 717 mmHg 86%

    Morgen, 24 November, Freitag

    Zeit Temperatur Niederschläge Wind Luftdruck Luftfeuchtigkeit
    00:00 +24°C° 0,1 mm 1 m/S 716 mmHg 85%
    01:00 +24°C° 0,1 mm 1 m/S 716 mmHg 83%
    02:00 +24°C° 0 mm 1 m/S 716 mmHg 82%
    03:00 +24°C° 0 mm 1 m/S 716 mmHg 80%
    04:00 +24°C° 0 mm 1 m/S 715 mmHg 79%
    05:00 +24°C° 0,1 mm 1 m/S 716 mmHg 77%
    06:00 +25°C° 0,1 mm 1 m/S 717 mmHg 75%
    07:00 +25°C° 0,1 mm 1 m/S 717 mmHg 73%
    08:00 +27°C° 0,2 mm 1 m/S 718 mmHg 69%
    09:00 +29°C° 0,2 mm 1 m/S 718 mmHg 65%
    10:00 +31°C° 0,2 mm 1 m/S 718 mmHg 60%
    11:00 +31°C° 0,2 mm 1 m/S 718 mmHg 61%
    12:00 +31°C° 0,2 mm 2 m/S 717 mmHg 61%
    13:00 +32°C° 0,2 mm 2 m/S 716 mmHg 62%
    14:00 +31°C° 0,3 mm 2 m/S 716 mmHg 67%
    15:00 +30°C° 0,3 mm 1 m/S 715 mmHg 72%
    16:00 +30°C° 0,3 mm 1 m/S 715 mmHg 77%
    17:00 +28°C° 0,3 mm 1 m/S 715 mmHg 80%
    18:00 +27°C° 0,3 mm 1 m/S 716 mmHg 84%
    19:00 +26°C° 0,3 mm 1 m/S 716 mmHg 87%
    20:00 +26°C° 0,1 mm 1 m/S 716 mmHg 86%
    21:00 +25°C° 0,1 mm 1 m/S 717 mmHg 85%
    22:00 +25°C° 0,1 mm 1 m/S 717 mmHg 84%
    23:00 +25°C° 0,3 mm 1 m/S 717 mmHg 83%

    übermorgen, 25 November, Samstag

    Zeit Temperatur Niederschläge Wind Luftdruck Luftfeuchtigkeit
    00:00 +25°C° 0,3 mm 1 m/S 717 mmHg 83%
    01:00 +24°C° 0,3 mm 1 m/S 717 mmHg 82%
    02:00 +24°C° 0,1 mm 1 m/S 716 mmHg 82%
    03:00 +24°C° 0,1 mm 1 m/S 716 mmHg 82%
    04:00 +24°C° 0,1 mm 1 m/S 716 mmHg 82%
    05:00 +22°C° 0,1 mm 0 m/S 716 mmHg 82%
    06:00 +23°C° 0,1 mm 0 m/S 717 mmHg 81%
    07:00 +23°C° 0,1 mm 0 m/S 718 mmHg 81%
    08:00 +26°C° 0,2 mm 1 m/S 718 mmHg 80%
    09:00 +27°C° 0,2 mm 1 m/S 719 mmHg 78%
    10:00 +28°C° 0,2 mm 1 m/S 719 mmHg 77%
    11:00 +28°C° 0,2 mm 1 m/S 718 mmHg 73%
    12:00 +29°C° 0,2 mm 1 m/S 717 mmHg 70%
    13:00 +30°C° 0,2 mm 1 m/S 717 mmHg 67%
    14:00 +30°C° 0,1 mm 1 m/S 716 mmHg 67%
    15:00 +30°C° 0,1 mm 1 m/S 715 mmHg 67%
    16:00 +30°C° 0,1 mm 1 m/S 714 mmHg 67%
    17:00 +28°C° 0 mm 1 m/S 715 mmHg 73%
    18:00 +27°C° 0 mm 1 m/S 716 mmHg 79%
    19:00 +25°C° 0 mm 1 m/S 716 mmHg 85%
    20:00 +25°C° 0,1 mm 1 m/S 717 mmHg 85%
    21:00 +25°C° 0,1 mm 1 m/S 717 mmHg 84%
    22:00 +25°C° 0,1 mm 1 m/S 718 mmHg 83%
    23:00 +24°C° 0,1 mm 1 m/S 717 mmHg 83%

    26 November, Sonntag

    Zeit Temperatur Niederschläge Wind Luftdruck Luftfeuchtigkeit
    00:00 +24°C° 0,1 mm 1 m/S 717 mmHg 82%
    01:00 +24°C° 0,1 mm 1 m/S 717 mmHg 81%
    02:00 +24°C° 0 mm 1 m/S 716 mmHg 80%
    03:00 +24°C° 0 mm 1 m/S 716 mmHg 79%
    04:00 +24°C° 0 mm 1 m/S 716 mmHg 77%
    05:00 +24°C° 0 mm 1 m/S 716 mmHg 75%
    06:00 +23°C° 0 mm 0 m/S 717 mmHg 74%
    07:00 +24°C° 0 mm 0 m/S 717 mmHg 72%
    08:00 +27°C° 0 mm 1 m/S 718 mmHg 68%
    09:00 +29°C° 0 mm 1 m/S 718 mmHg 63%
    10:00 +31°C° 0 mm 1 m/S 718 mmHg 58%
    11:00 +31°C° 0,1 mm 1 m/S 717 mmHg 59%
    12:00 +31°C° 0,1 mm 2 m/S 716 mmHg 59%
    13:00 +32°C° 0,1 mm 2 m/S 716 mmHg 59%
    14:00 +31°C° 0,2 mm 2 m/S 715 mmHg 63%
    15:00 +31°C° 0,2 mm 1 m/S 714 mmHg 68%
    16:00 +30°C° 0,2 mm 1 m/S 714 mmHg 72%
    17:00 +29°C° 0,5 mm 1 m/S 714 mmHg 76%
    18:00 +27°C° 0,5 mm 1 m/S 715 mmHg 81%
    19:00 +26°C° 0,5 mm 1 m/S 715 mmHg 86%
    20:00 +26°C° 0,3 mm 1 m/S 716 mmHg 86%
    21:00 +25°C° 0,3 mm 1 m/S 716 mmHg 86%
    22:00 +25°C° 0,3 mm 1 m/S 716 mmHg 86%
    23:00 +25°C° 0,3 mm 1 m/S 716 mmHg 85%

    27 November, Montag

    Zeit Temperatur Niederschläge Wind Luftdruck Luftfeuchtigkeit
    00:00 +25°C° 0,3 mm 1 m/S 716 mmHg 85%
    01:00 +24°C° 0,3 mm 1 m/S 715 mmHg 85%
    02:00 +24°C° 0,4 mm 1 m/S 715 mmHg 85%
    03:00 +24°C° 0,4 mm 1 m/S 715 mmHg 85%
    04:00 +24°C° 0,4 mm 1 m/S 715 mmHg 86%
    05:00 +23°C° 0,2 mm 0 m/S 716 mmHg 84%
    06:00 +23°C° 0,2 mm 0 m/S 717 mmHg 83%
    07:00 +24°C° 0,2 mm 0 m/S 717 mmHg 81%
    08:00 +27°C° 0 mm 1 m/S 717 mmHg 75%
    09:00 +29°C° 0 mm 1 m/S 717 mmHg 69%
    10:00 +31°C° 0 mm 1 m/S 718 mmHg 63%
    11:00 +31°C° 0,1 mm 2 m/S 717 mmHg 63%
    12:00 +31°C° 0,1 mm 2 m/S 716 mmHg 63%
    13:00 +31°C° 0,1 mm 2 m/S 715 mmHg 63%
    14:00 +31°C° 0,2 mm 2 m/S 715 mmHg 67%
    15:00 +30°C° 0,2 mm 1 m/S 714 mmHg 72%
    16:00 +30°C° 0,2 mm 1 m/S 714 mmHg 76%
    17:00 +29°C° 0,8 mm 1 m/S 714 mmHg 79%
    18:00 +27°C° 0,8 mm 1 m/S 715 mmHg 83%
    19:00 +26°C° 0,8 mm 1 m/S 716 mmHg 87%
    20:00 +26°C° 0,7 mm 1 m/S 716 mmHg 87%
    21:00 +25°C° 0,7 mm 1 m/S 716 mmHg 87%
    22:00 +25°C° 0,7 mm 1 m/S 717 mmHg 86%
    23:00 +25°C° 0,7 mm 1 m/S 716 mmHg 86%

    28 November, Dienstag

    Zeit Temperatur Niederschläge Wind Luftdruck Luftfeuchtigkeit
    00:00 +23°C° 0,7 mm 0 m/S 716 mmHg 86%
    01:00 +23°C° 0,7 mm 0 m/S 716 mmHg 85%
    02:00 +22°C° 0,3 mm 0 m/S 716 mmHg 85%
    03:00 +24°C° 0,3 mm 1 m/S 716 mmHg 85%
    04:00 +24°C° 0,3 mm 1 m/S 716 mmHg 85%
    05:00 +24°C° 0,1 mm 1 m/S 716 mmHg 84%
    06:00 +25°C° 0,1 mm 1 m/S 717 mmHg 83%
    07:00 +25°C° 0,1 mm 1 m/S 718 mmHg 82%
    08:00 +27°C° 0,1 mm 1 m/S 718 mmHg 76%
    09:00 +28°C° 0,1 mm 1 m/S 718 mmHg 70%
    10:00 +29°C° 0,1 mm 1 m/S 718 mmHg 65%
    11:00 +30°C° 0 mm 1 m/S 718 mmHg 62%
    12:00 +31°C° 0 mm 2 m/S 717 mmHg 60%
    13:00 +31°C° 0 mm 2 m/S 716 mmHg 58%
    14:00 +31°C° 0 mm 2 m/S 716 mmHg 60%
    15:00 +31°C° 0 mm 1 m/S 715 mmHg 63%
    16:00 +30°C° 0 mm 1 m/S 715 mmHg 66%
    17:00 +29°C° 0,1 mm 1 m/S 716 mmHg 71%
    18:00 +27°C° 0,1 mm 1 m/S 716 mmHg 77%
    19:00 +26°C° 0,1 mm 1 m/S 717 mmHg 83%
    20:00 +26°C° 0,4 mm 1 m/S 717 mmHg 82%
    21:00 +25°C° 0,4 mm 1 m/S 718 mmHg 82%
    22:00 +25°C° 0,4 mm 1 m/S 718 mmHg 81%
    23:00 +25°C° 0,1 mm 1 m/S 718 mmHg 80%
    Mehr zeigen